Location: Albert Place
(40.7505°N, 111.9230°W)
Time: 14:09:45
(UTC+00:00)

Cosmos 2360 Rocket - Pass Details

Date: 13 December 2025
Orbit: 834 x 842 km, 71.0° (Epoch: 17 January)

Event Time Altitude Azimuth Distance (km) Brightness Sun altitude
Exits shadow 13:34:09 12° 321° (NW) 2,279 3.9 -12.7°
Maximum altitude 13:38:55 42° 254° (WSW) 1,171 2.6 -11.9°
Drops below altitude 10° 13:44:09 10° 185° (S) 2,435 4.8 -10.9°
Sets 13:46:41 0° 178° (S) 3,365 5.7 -10.5°
